Location: Navajo
(48.7922°N, 105.0603°W)
Time: 06:07:45
(UTC+00:00)

KKS-1 - Pass Details

Date: 03 July 2022
Orbit: 634 x 649 km, 98.2° (Epoch: 18 August)

Event Time Altitude Azimuth Distance (km) Brightness Sun altitude
Rises 06:14:56 0° 4° (N) 2,979 ? -17.4°
Reaches altitude 10° 06:17:26 10° 352° (N) 2,062 ? -17.5°
Maximum altitude 06:21:06 25° 297° (WNW) 1,305 ? -17.6°
Drops below altitude 10° 06:24:44 10° 242° (WSW) 2,045 ? -17.7°
Enters shadow 06:25:35 - 237° (WSW) 2,338 ? -17.7°
